Location: Austin
(30.3000°N, 97.7500°W)
Time: 23:36:00
(UTC-05:00)

Aurora 2 Rocket - Pass Details

Date: 06 May 2026
Orbit: 384 x 1528 km, 25.0° (Epoch: 13 May)

Event Time Altitude Azimuth Distance (km) Brightness Sun altitude
Rises 20:49:20 0° 257° (WSW) 2,367 6.5 -8.2°
Reaches altitude 10° 20:51:47 10° 236° (SW) 1,606 5.1 -8.7°
Maximum altitude 20:54:17 17° 192° (SSW) 1,334 4.1 -9.2°
Drops below altitude 10° 20:57:11 10° 150° (SSE) 1,916 4.6 -9.7°
Enters shadow 20:57:31 - 147° (SSE) 2,019 4.7 -9.8°
